This is the latest recevied weather packets stored in our database for station/object K9UO. If no packets are shown the sender has not sent any weather packets the latest 10 day(s).
| Time | Temp. | Humidity | Pressure | Rain* | Wind** | Luminosity | Snow |
|---|---|---|---|---|---|---|---|
| 1777634156 | 7.78° C | 1% | 1011.2 hPa | 0.76 mm | - | - | - |
| 1777633251 | 7.78° C | 1% | 1011.2 hPa | 1.02 mm | - | - | - |
| 1777632366 | 8.33° C | 1% | 1011.2 hPa | 1.52 mm | - | - | - |
| 1777631442 | 7.78° C | 1% | 1011.4 hPa | 1.52 mm | - | - | - |
| 1777630538 | 8.33° C | 1% | 1011.8 hPa | 1.02 mm | - | - | - |
| 1777629633 | 7.78° C | 1% | 1012 hPa | 0.51 mm | - | - | - |
| 1777628729 | 7.78° C | 1% | 1012 hPa | 0 mm | - | - | - |
| 1777627832 | 7.78° C | 1% | 1012 hPa | 0 mm | - | - | - |
| 1777626935 | 7.22° C | 1% | 1012 hPa | 0 mm | - | - | - |
| 1777626016 | 7.22° C | 1% | 1012.2 hPa | 0 mm | - | - | - |
| 1777625112 | 7.22° C | 1% | 1012.1 hPa | 0 mm | - | - | - |
| 1777624218 | 7.22° C | 1% | 1012.2 hPa | 0 mm | - | - | - |
| 1777623303 | 7.78° C | 1% | 1012.4 hPa | 0 mm | - | - | - |
| 1777622459 | 7.78° C | 1% | 1012.3 hPa | 0 mm | - | - | - |
| 1777621565 | 8.33° C | 1% | 1012.3 hPa | 0 mm | - | - | - |
| 1777620650 | 8.89° C | 6% | 1012.4 hPa | 0 mm | - | - | - |
| 1777619746 | 9.44° C | 15% | 1012.7 hPa | 0 mm | - | - | - |
| 1777618842 | 10° C | 28% | 1012.9 hPa | 0 mm | - | - | - |
| 1777617939 | 10° C | 31% | 1013.2 hPa | 0 mm | - | - | - |
| 1777617037 | 10° C | 31% | 1013.5 hPa | 0 mm | - | - | - |
| 1777616136 | 10° C | 33% | 1013.6 hPa | 0 mm | - | - | - |
| 1777615234 | 10° C | 38% | 1013.6 hPa | 0 mm | - | - | - |
| 1777614336 | 10° C | 36% | 1013.7 hPa | 0 mm | - | - | - |
| 1777613437 | 10° C | 34% | 1013.8 hPa | 0 mm | - | - | - |
| 1777612530 | 10° C | 35% | 1013.7 hPa | 0 mm | - | - | - |
* Rain latest hour (hover to see other rain measurements)
** Current wind speed in m/s (hover to see current wind gust speed)